EDT,Max TemperatureF,Mean TemperatureF,Min TemperatureF,Max Dew PointF,MeanDew PointF,Min DewpointF,Max Humidity, Mean Humidity, Min Humidity, Max Sea Level PressureIn, Mean Sea Level PressureIn, Min Sea Level PressureIn, Max VisibilityMiles, Mean VisibilityMiles, Min VisibilityMiles, Max Wind SpeedMPH, Mean Wind SpeedMPH, Max Gust SpeedMPH,PrecipitationIn, CloudCover, Events, WindDirDegrees
2013-6-1,84,76,67,63,59,56,73,60,47,30.04,29.98,29.91,10,10,10,16,8,25,0.00,2,,188
2013-6-2,72,67,61,64,62,57,100,83,66,30.03,29.94,29.87,10,9,2,15,7,21,0.29,6,Rain,216
2013-6-3,71,64,56,63,60,56,100,81,61,30.08,29.96,29.88,10,10,10,15,4,18,0.01,7,,311
2013-6-4,75,65,55,57,54,51,100,72,43,30.13,30.07,30.02,10,8,2,10,4,13,0.00,4,,17
2013-6-5,78,69,60,63,59,54,90,75,60,30.11,30.03,29.94,10,10,8,20,9,49,T,3,Rain,148
2013-6-6,72,67,62,66,62,57,100,89,78,30.04,29.88,29.78,10,9,2,18,9,23,0.32,7,Rain,139
2013-6-7,67,63,58,65,63,57,100,95,90,29.92,29.79,29.71,10,6,1,14,6,25,0.22,8,Rain,348
2013-6-8,76,66,56,60,57,53,100,73,46,30.10,29.97,29.87,10,5,0,10,3,13,0.06,6,Fog-Rain,322
2013-6-9,82,71,59,65,60,55,93,69,45,30.14,30.07,30.00,10,10,8,18,6,23,0.03,4,Rain,182
2013-6-10,72,67,62,67,64,60,100,84,68,30.03,29.94,29.86,10,7,1,21,7,30,0.42,7,Rain,198
2013-6-11,76,69,61,64,62,61,100,82,64,30.05,29.96,29.88,10,9,4,18,8,23,0.01,6,Rain,264
2013-6-12,84,73,61,72,66,62,100,81,61,30.07,29.96,29.85,10,10,2,17,7,22,0.17,3,Rain,234
2013-6-13,75,66,56,72,65,58,100,90,79,29.86,29.77,29.66,10,8,1,30,10,40,0.62,6,Rain,272
2013-6-14,71,63,54,57,55,53,100,79,57,30.07,29.97,29.86,10,10,7,17,6,23,0.00,4,,331
2013-6-15,76,64,51,59,55,51,100,72,43,30.14,30.09,30.06,10,10,6,12,4,15,0.00,1,,231
2013-6-16,79,69,59,68,62,55,100,78,56,30.13,30.05,29.99,10,8,2,17,8,28,0.51,5,Rain,235
2013-6-17,82,72,61,67,64,57,100,79,58,30.11,30.01,29.91,10,9,2,22,4,31,0.37,5,Rain,233
2013-6-18,70,64,58,64,62,60,100,89,78,29.98,29.93,29.84,10,6,1,14,4,18,0.99,6,Rain,359
2013-6-19,77,67,57,64,60,57,100,75,50,30.13,30.05,29.96,10,6,0,12,3,16,0.00,4,Fog,9
2013-6-20,79,68,57,65,62,57,100,78,56,30.29,30.19,30.13,10,9,3,10,4,13,0.00,3,,106
2013-6-21,83,72,61,65,62,58,100,73,45,30.24,30.21,30.15,10,9,7,12,5,17,0.00,2,,146
2013-6-22,82,72,62,62,59,56,93,71,49,30.24,30.18,30.11,10,10,10,16,4,22,0.00,0,,126
2013-6-23,84,73,62,65,62,58,100,72,43,30.19,30.14,30.09,10,10,10,10,3,13,0.00,1,,188
2013-6-24,84,75,65,70,64,61,100,78,55,30.19,30.13,30.06,10,9,2,25,4,38,0.22,4,Rain,250
2013-6-25,82,73,64,70,67,64,100,81,62,30.22,30.07,29.99,10,10,7,12,5,16,0.00,1,,215
2013-6-26,81,73,65,70,67,64,100,79,58,30.08,29.98,29.87,10,10,9,18,7,25,T,3,,228
2013-6-27,72,68,64,69,66,63,100,87,73,29.91,29.84,29.72,10,8,1,20,8,28,0.37,7,Rain,244
2013-6-28,81,72,63,70,65,59,100,75,49,29.85,29.70,29.57,10,8,5,22,10,31,0.20,4,,251
2013-6-29,78,69,59,64,61,57,100,76,52,29.75,29.66,29.59,10,9,2,17,6,23,T,4,Rain,222
2013-6-30,81,71,60,63,61,58,87,68,48,29.79,29.74,29.68,10,10,10,17,5,23,0.01,3,,162